Location: Marysville Observatory
(48.1092°N, 122.1645°W)
Time: 22:36:51
(UTC-07:00)

ISS - Visible Passes

Search period start: 24 October 2014 00:00
Search period end: 02 November 2014 23:00
Orbit: 412 x 416 km, 51.6° (Epoch: 24 October)

Date Brightness Start Highest point End Pass type
(mag) Time Alt. Az. Time Alt. Az. Time Alt. Az.
24 Oct -1.4 19:45:10 10° W 19:48:05 27° SW 19:49:50 18° S visible
25 Oct -2.1 18:55:49 10° WNW 18:59:00 42° SSW 19:02:11 10° SE visible
26 Oct -0.3 19:44:27 10° WSW 19:45:59 13° SW 19:47:32 10° SSW visible
27 Oct -0.6 18:54:24 10° W 18:56:56 20° SW 18:59:26 10° S visible
